Weather History for Wolf Creek Pass, CO

Change the Weather History Date:

Thursday, May 16, 2013

  Actual Average (KALS) Record (KALS)
Temperature  
Mean Temperature 40 °F 51 °F  
Max Temperature 48 °F 69 °F 83 °F (1996)
Min Temperature 32 °F 34 °F 23 °F (1951)
Degree Days  
Heating Degree Days 25 14  
Month to date heating degree days 255  
Since 1 July heating degree days 8255  
Cooling Degree Days 0 0  
Month to date cooling degree days 0  
Year to date cooling degree days 0  
Moisture  
Dew Point 19 °F    
Average Humidity 43    
Maximum Humidity 75    
Minimum Humidity 32    
Precipitation  
Precipitation 0.00 in 0.01 in 0.58 in (1953)
Month to date precipitation 0.32  
Year to date precipitation 1.96  
Snow  
Snow 0.00 in 0.00 in 1.20 in (1953)
Month to date snowfall 0.8  
Since 1 July snowfall 27.5  
Snow Depth -    
Sea Level Pressure  
Sea Level Pressure 30.34 in    
Wind  
Wind Speed 13 mph (SW)    
Max Wind Speed 22 mph    
Max Gust Speed 36 mph    
Visibility 10 miles    
Events      
T = Trace of Precipitation, MM = Missing Value Source: NWS Daily Summary

Daily Weather History Graph

Daily Weather History Graph

Search for Another Location

Airport:

Trip Planner

Search our weather history database for the weather conditions in past years. The results will help you decide how hot, cold, wet, or windy it might be!

Date:

Astronomy

May. 16, 2013 Rise Set
Actual Time 5:57 AM MDT 8:10 PM MDT
Civil Twilight 5:27 AM MDT 8:40 PM MDT
Nautical Twilight 4:51 AM MDT 9:16 PM MDT
Astronomical Twilight 4:12 AM MDT 9:55 PM MDT
Moon 11:30 AM MDT (5/16) 12:34 AM MDT (5/16)
Length of Visible Light 15h 12m
Length of Day
14h 13m
Waxing Crescent, 36% of the Moon is Illuminated
May 16
Waxing Crescent
May 17
First Quarter
May 24
Full
May 31
Last Quarter
Jun 8
New

Hourly Weather History & Observations

Time (MDT) Temp. Windchill Dew Point Humidity Pressure Visibility Wind Dir Wind Speed Gust Speed Precip Events Conditions
12:01 AM 37.4 °F 31.4 °F 30.2 °F 75% 30.35 in 10.0 mi SSW 8.1 mph - N/A   Clear
12:21 AM 35.6 °F 28.6 °F 28.4 °F 75% 30.35 in 10.0 mi SSW 9.2 mph - N/A   Clear
12:41 AM 35.6 °F 27.1 °F 28.4 °F 75% 30.34 in 10.0 mi SW 12.7 mph - N/A   Clear
1:01 AM 35.6 °F 27.1 °F 26.6 °F 70% 30.34 in 10.0 mi SW 12.7 mph - N/A   Clear
1:21 AM 35.6 °F 26.2 °F 23.0 °F 60% 30.34 in 10.0 mi SW 15.0 mph 21.9 mph N/A   Clear
1:41 AM 35.6 °F 25.9 °F 21.2 °F 56% 30.34 in 10.0 mi WSW 16.1 mph 20.7 mph N/A   Clear
2:01 AM 35.6 °F 26.2 °F 21.2 °F 56% 30.33 in 10.0 mi SW 15.0 mph 20.7 mph N/A   Clear
2:21 AM 35.6 °F 25.9 °F 19.4 °F 52% 30.33 in 10.0 mi SW 16.1 mph 21.9 mph N/A   Clear
2:41 AM 35.6 °F 26.2 °F 17.6 °F 48% 30.32 in 10.0 mi SW 15.0 mph 18.4 mph N/A   Clear
3:01 AM 35.6 °F 27.1 °F 17.6 °F 48% 30.32 in 10.0 mi SW 12.7 mph - N/A   Clear
3:21 AM 35.6 °F 26.2 °F 17.6 °F 48% 30.32 in 10.0 mi SW 15.0 mph - N/A   Clear
3:41 AM 33.8 °F 24.8 °F 15.8 °F 48% 30.32 in 10.0 mi SW 12.7 mph - N/A   Clear
4:01 AM 33.8 °F 25.8 °F 15.8 °F 48% 30.32 in 10.0 mi SW 10.4 mph - N/A   Clear
4:21 AM 33.8 °F 26.4 °F 15.8 °F 48% 30.32 in 10.0 mi SW 9.2 mph - N/A   Clear
4:41 AM 33.8 °F 24.3 °F 14.0 °F 44% 30.32 in 10.0 mi SW 13.8 mph - N/A   Clear
5:01 AM 33.8 °F 23.9 °F 14.0 °F 44% 30.31 in 10.0 mi SW 15.0 mph - N/A   Clear
5:21 AM 32.0 °F 22.1 °F 14.0 °F 48% 30.31 in 10.0 mi WSW 13.8 mph - N/A   Clear
5:41 AM 33.8 °F 23.5 °F 14.0 °F 44% 30.31 in 10.0 mi SW 16.1 mph - N/A   Clear
6:01 AM 33.8 °F 23.9 °F 14.0 °F 44% 30.31 in 10.0 mi SW 15.0 mph - N/A   Clear
6:21 AM 32.0 °F 21.2 °F 14.0 °F 48% 30.31 in 10.0 mi SW 16.1 mph 21.9 mph N/A   Clear
6:41 AM 33.8 °F 25.3 °F 12.2 °F 41% 30.32 in 10.0 mi SW 11.5 mph 19.6 mph N/A   Clear
7:01 AM 33.8 °F 24.3 °F 14.0 °F 44% 30.33 in 10.0 mi WSW 13.8 mph - N/A   Clear
7:21 AM 33.8 °F 23.5 °F 14.0 °F 44% 30.33 in 10.0 mi WSW 16.1 mph - N/A   Clear
7:41 AM 35.6 °F 27.1 °F 12.2 °F 38% 30.34 in 10.0 mi SW 12.7 mph - N/A   Clear
8:01 AM 37.4 °F 29.8 °F 14.0 °F 38% 30.34 in 10.0 mi WSW 11.5 mph - N/A   Clear
8:21 AM 39.2 °F 33.6 °F 15.8 °F 39% 30.34 in 10.0 mi WSW 8.1 mph - N/A   Clear
8:41 AM 41.0 °F 34.3 °F 17.6 °F 39% 30.35 in 10.0 mi WSW 11.5 mph - N/A   Clear
9:01 AM 41.0 °F 33.9 °F 17.6 °F 39% 30.35 in 10.0 mi WSW 12.7 mph - N/A   Clear
9:21 AM 41.0 °F 33.9 °F 17.6 °F 39% 30.36 in 10.0 mi SW 12.7 mph 18.4 mph N/A   Clear
9:41 AM 41.0 °F 36.4 °F 17.6 °F 39% 30.36 in 10.0 mi SW 6.9 mph - N/A   Clear
10:01 AM 42.8 °F 37.0 °F 19.4 °F 39% 30.37 in 10.0 mi SW 10.4 mph - N/A   Clear
10:21 AM 42.8 °F 36.6 °F 19.4 °F 39% 30.37 in 10.0 mi SSW 11.5 mph 18.4 mph N/A   Clear
10:41 AM 42.8 °F 37.0 °F 21.2 °F 42% 30.37 in 10.0 mi SSW 10.4 mph - N/A   Clear
11:01 AM 42.8 °F 37.5 °F 21.2 °F 42% 30.37 in 10.0 mi SW 9.2 mph 18.4 mph N/A   Clear
11:22 AM 42.8 °F 38.0 °F 21.2 °F 42% 30.37 in 10.0 mi West 8.1 mph 20.7 mph N/A   Clear
11:41 AM 42.8 °F 36.2 °F 21.2 °F 42% 30.37 in 10.0 mi SW 12.7 mph 17.3 mph N/A   Clear
12:02 PM 42.8 °F 35.8 °F 21.2 °F 42% 30.37 in 10.0 mi SW 13.8 mph 21.9 mph N/A   Clear
12:22 PM 44.6 °F 39.2 °F 21.2 °F 39% 30.37 in 10.0 mi WSW 10.4 mph 21.9 mph N/A   Clear
12:42 PM 44.6 °F 38.4 °F 21.2 °F 39% 30.37 in 10.0 mi South 12.7 mph 23.0 mph N/A   Clear
1:02 PM 44.6 °F 38.4 °F 21.2 °F 39% 30.37 in 10.0 mi SW 12.7 mph 21.9 mph N/A   Clear
1:41 PM 44.6 °F 36.9 °F 23.0 °F 43% 30.37 in 10.0 mi WSW 18.4 mph 27.6 mph N/A   Clear
2:02 PM 44.6 °F 36.9 °F 21.2 °F 39% 30.36 in 10.0 mi SW 18.4 mph 26.5 mph N/A   Scattered Clouds
2:22 PM 44.6 °F 39.7 °F 23.0 °F 43% 30.36 in 10.0 mi SSW 9.2 mph 18.4 mph N/A   Scattered Clouds
2:42 PM 46.4 °F 39.8 °F 21.2 °F 37% 30.35 in 10.0 mi WSW 16.1 mph 27.6 mph N/A   Scattered Clouds
3:02 PM 46.4 °F 40.7 °F 21.2 °F 37% 30.35 in 10.0 mi SSW 12.7 mph 20.7 mph N/A   Scattered Clouds
3:22 PM 44.6 °F 38.4 °F 21.2 °F 39% 30.34 in 10.0 mi SSW 12.7 mph 24.2 mph N/A   Scattered Clouds
3:41 PM 48.2 °F - 23.0 °F 37% 30.34 in 10.0 mi WSW 16.1 mph 24.2 mph N/A   Scattered Clouds
4:02 PM 46.4 °F 41.5 °F 23.0 °F 40% 30.33 in 10.0 mi SW 10.4 mph 29.9 mph N/A   Scattered Clouds
4:42 PM 44.6 °F 39.2 °F 21.2 °F 39% 30.33 in 10.0 mi SW 10.4 mph 18.4 mph N/A   Overcast
5:02 PM 46.4 °F 41.1 °F 19.4 °F 34% 30.33 in 10.0 mi SSW 11.5 mph 24.2 mph N/A   Overcast
5:22 PM 46.4 °F 41.5 °F 19.4 °F 34% 30.32 in 10.0 mi SSW 10.4 mph 21.9 mph N/A   Mostly Cloudy
5:42 PM 48.2 °F - 19.4 °F 32% 30.32 in 10.0 mi SW 17.3 mph 31.1 mph N/A   Scattered Clouds
6:02 PM 44.6 °F 36.9 °F 19.4 °F 37% 30.32 in 10.0 mi SW 18.4 mph 27.6 mph N/A   Clear
6:22 PM 46.4 °F 39.5 °F 19.4 °F 34% 30.31 in 10.0 mi SW 17.3 mph 24.2 mph N/A   Scattered Clouds
6:42 PM 46.4 °F 40.1 °F 19.4 °F 34% 30.32 in 10.0 mi SW 15.0 mph 24.2 mph N/A   Scattered Clouds
7:02 PM 44.6 °F 36.9 °F 19.4 °F 37% 30.31 in 10.0 mi SW 18.4 mph 27.6 mph N/A   Scattered Clouds
7:22 PM 44.6 °F 36.1 °F 19.4 °F 37% 30.31 in 10.0 mi SW 21.9 mph 35.7 mph N/A   Scattered Clouds
7:42 PM 44.6 °F 37.2 °F 19.4 °F 37% 30.31 in 10.0 mi SW 17.3 mph 32.2 mph N/A   Scattered Clouds
8:02 PM 42.8 °F 35.4 °F 19.4 °F 39% 30.31 in 10.0 mi SW 15.0 mph 28.8 mph N/A   Clear
8:22 PM 42.8 °F 33.8 °F 17.6 °F 36% 30.32 in 10.0 mi WSW 21.9 mph 26.5 mph N/A   Clear
8:42 PM 42.8 °F 34.3 °F 17.6 °F 36% 30.32 in 10.0 mi WSW 19.6 mph 23.0 mph N/A   Clear
9:02 PM 41.0 °F 33.1 °F 17.6 °F 39% 30.32 in 10.0 mi SW 15.0 mph 23.0 mph N/A   Clear
9:22 PM 41.0 °F 32.8 °F 17.6 °F 39% 30.33 in 10.0 mi WSW 16.1 mph - N/A   Clear
9:42 PM 41.0 °F 33.5 °F 17.6 °F 39% 30.33 in 10.0 mi SW 13.8 mph - N/A   Clear
10:02 PM 41.0 °F 33.1 °F 17.6 °F 39% 30.33 in 10.0 mi SW 15.0 mph 18.4 mph N/A   Clear
10:22 PM 41.0 °F 33.5 °F 17.6 °F 39% 30.34 in 10.0 mi SW 13.8 mph - N/A   Clear
10:42 PM 41.0 °F 32.8 °F 15.8 °F 36% 30.34 in 10.0 mi SW 16.1 mph 20.7 mph N/A   Clear
11:02 PM 41.0 °F 32.8 °F 15.8 °F 36% 30.34 in 10.0 mi WSW 16.1 mph 21.9 mph N/A   Clear
11:22 PM 41.0 °F 33.1 °F 14.0 °F 33% 30.34 in 10.0 mi WSW 15.0 mph 21.9 mph N/A   Clear
11:42 PM 41.0 °F 33.5 °F 14.0 °F 33% 30.34 in 10.0 mi SW 13.8 mph 21.9 mph N/A   Clear